Location: Campillo
(40.8621°N, 4.2488°W)
Time: 12:59:02
(UTC+00:00)

Cosmos 1606 - Pass Details

Date: 11 May 2021
Orbit: 503 x 525 km, 82.5° (Epoch: 13 June)

Event Time Altitude Azimuth Distance (km) Brightness Sun altitude
Rises 20:16:57 0° 199° (SSW) 2,591 6.1 -9.5°
Reaches altitude 10° 20:19:06 10° 206° (SSW) 1,714 5.3 -9.9°
Maximum altitude 20:22:44 46° 281° (W) 686 3.8 -10.4°
Drops below altitude 10° 20:26:25 10° 356° (N) 1,738 6.0 -11.0°
Sets 20:28:37 0° 2° (N) 2,632 6.8 -11.3°
